ATLAS 5 CENTAUR DEB, 43956

Orbit data source: Space-Track

ATLAS 5 CENTAUR DEB, 43956 is space debris in HEO originally from a launch on Wed, 17 Sep 2014 UTC launched from the Air Force Eastern Test Range (AFETR). Debris objects in space refer to the collection of defunct objects orbiting the Earth. Examples of debris include non-operational satellites, rocket bodies, and fragments generated from explosions, collisions, or faulty payload assembly.

Loading next visibility...
Identifier
43956, 2014-055K
Orbit
HEO
Country
Flag of USUS
Related business
Flag of USUnited Launch Alliance/Lockheed Martin (US)
Manufacturer
Unknown
Mission
Spacecraft
Bus & Motor
Unknown
Mass
Unknown
Launch date (UTC)
2014-09-17 (11 years ago)
Launch vehicle
Unknown
Launch site
Air Force Eastern Test Range (AFETR)
Object type
Payload
Rocket body
Debris
Shape & HBR
Unknown shape, 1.1 m
Radar Cross Section
Small (<0.1 m²)

Expand to show TLE details & history
Last TLE update: 2 days ago

TLE from 2 days ago
0 ATLAS 5 CENTAUR DEB
1 43956U 14055K   26071.37544447 -.00000284  00000-0  00000+0 0  9990
2 43956  20.9312 109.7904 5076527 228.7272  74.9152  1.92106424 52271
Epoch: 2026-03-12T09:00Z
TLE epoch observation values (Epoch: 2026-03-12T09:00:38.402Z)
Latitude
Longitude
164.67507°
Altitude
24,127.826 km
Speed
3.399 km/s
True Right ascension
07h 19m 26s
True Declination
0° 00' 00"
Sunlit
Object was in daylight at epoch
Visualization orbit readout
Latitude
Unknown
Longitude
Unknown
Altitude
Unknown
Speed
Unknown
Apparent Right ascension
Unknown
Apparent Declination
Unknown
Sunlit
N/A
Visualization observer readout
Local Sidereal Time
08:42:27
Azimuth
Unknown
Elevation
Unknown
Doppler factor
Unknown
Orbital elements
Apogee altitude
34,835.524 km
Perigee altitude
7,080.821 km
Semi-major axis
27,336.309 km
Eccentricity
0.50765
Inclination
20.9312°
RAAN
109.7904°
Arg. of periapsis
228.7272°
True anomaly
131.2882°
Mean anomaly
74.9152°
Eccentric anomaly
103.22963°
Mean motion
0.48021 °/min
Orbital period
749.67 mins
BSTAR
0
Loading maneuver chart data...
Computing Atmospheric mass density...

Documentation

Showing up to 5 results
|